Mars Hill, North Carolina, United States (28754)
Lat: 35.83N, Lon: 82.55W
Wx Zone: NCZ048
Local Info
Past Weather Observations for Today

NOTE: This archive is for the closest National Weather Service station to Mars Hill. Information may differ from the station used for current weather conditions.

Click here for Long-term Archive

Time Weather Temperature Dewpoint Humidity Pressure Winds Precip Visibility
20:54
Clear
70°F / 21°C 61°F / 16°C 73% 30.12 in
(1020 mb)
Calm - 10SM
19:54
Clear
72°F / 22°C 63°F / 17°C 73% 30.12 in
(1020 mb)
Calm 0.00 in
(0.00 mm)
10SM
18:54
Clear
75°F / 24°C 61°F / 16°C 61% 30.09 in
(1019 mb)
SW 4.6 mph
(SW 7 kph)
- 10SM
17:54
Mostly Cloudy
81°F / 27°C 61°F / 16°C 51% 30.09 in
(1019 mb)
Variable 4.6 mph
(Variable 7 kph)
- 10SM
16:54
Mostly Cloudy
84°F / 29°C 57°F / 14°C 40% 30.09 in
(1019 mb)
W 5.8 mph
(W 9 kph)
- 10SM
15:54
Partly Cloudy
84°F / 29°C 57°F / 14°C 40% 30.09 in
(1019 mb)
WNW 6.9 mph
(WNW 11 kph)
- 10SM
14:54
Clear
84°F / 29°C 55°F / 13°C 37% 30.12 in
(1020 mb)
Calm - 10SM
13:54
Clear
82°F / 28°C 55°F / 13°C 40% 30.12 in
(1020 mb)
Variable 4.6 mph
(Variable 7 kph)
- 10SM
12:54
Clear
82°F / 28°C 57°F / 14°C 42% 30.15 in
(1021 mb)
N 8.1 mph
(N 13 kph)
- 10SM
11:54
Clear
79°F / 26°C 57°F / 14°C 48% 30.15 in
(1021 mb)
N 4.6 mph
(N 7 kph)
- 10SM
10:54
Clear
75°F / 24°C 61°F / 16°C 61% 30.18 in
(1022 mb)
Variable 6.9 mph
(Variable 11 kph)
- 10SM
09:54
Clear
72°F / 22°C 61°F / 16°C 69% 30.18 in
(1022 mb)
NNW 4.6 mph
(NNW 7 kph)
- 10SM
08:54
Partly Cloudy
63°F / 17°C 61°F / 16°C 94% 30.21 in
(1023 mb)
Variable 3.5 mph
(Variable 6 kph)
- 9SM
08:41
Partly Cloudy
Fog And Mist
61°F / 16°C 61°F / 16°C 100% 30.21 in
(1023 mb)
NW 3.5 mph
(NW 6 kph)
- 6SM
07:54
Obscured
Fog
59°F / 15°C 57°F / 14°C 94% 30.21 in
(1023 mb)
Calm - 1/4SM
07:44
Obscured
Fog
57°F / 14°C 57°F / 14°C 100% 30.21 in
(1023 mb)
Calm - 1/4SM
07:03
Overcast
Fog And Mist
57°F / 14°C 55°F / 13°C 94% 30.18 in
(1022 mb)
Calm - 3/4SM
07:00
Overcast
Fog And Mist
57°F / 14°C 55°F / 13°C 94% 30.18 in
(1022 mb)
Calm - 1 3/4SM
06:54
Overcast
Fog And Mist
55°F / 13°C 55°F / 13°C 100% 30.18 in
(1022 mb)
Calm - 4SM
06:44
Overcast
Fog And Mist
55°F / 13°C 55°F / 13°C 100% 30.18 in
(1022 mb)
Calm - 5SM
06:39
Mostly Cloudy
Fog And Mist
55°F / 13°C 55°F / 13°C 100% 30.18 in
(1022 mb)
Calm - 2SM
06:33
Mostly Cloudy
Fog And Mist
55°F / 13°C 54°F / 12°C 94% 30.18 in
(1022 mb)
Calm - 1 1/4SM
06:29
Mostly Cloudy
Fog And Mist
55°F / 13°C 54°F / 12°C 94% 30.18 in
(1022 mb)
Calm - 1 3/4SM
06:12
Mostly Cloudy
Fog And Mist
55°F / 13°C 54°F / 12°C 94% 30.18 in
(1022 mb)
Calm - 4SM
06:09
Mostly Cloudy
Fog And Mist
55°F / 13°C 54°F / 12°C 94% 30.18 in
(1022 mb)
Calm - 1 1/2SM
05:54
Obscured
Fog
55°F / 13°C 54°F / 12°C 94% 30.18 in
(1022 mb)
Calm - 1/2SM
05:50
Obscured
Fog
55°F / 13°C 54°F / 12°C 94% 30.18 in
(1022 mb)
Calm - 1/4SM
05:23
Obscured
Fog And Mist
55°F / 13°C 55°F / 13°C 100% 30.15 in
(1021 mb)
Calm - 3/4SM
05:12
Obscured
Fog And Mist
55°F / 13°C 55°F / 13°C 100% 30.15 in
(1021 mb)
S 3.5 mph
(S 6 kph)
- 1SM
05:07
Partly Cloudy
Fog And Mist
55°F / 13°C 55°F / 13°C 100% 30.15 in
(1021 mb)
Calm - 1 3/4SM
04:54
Partly Cloudy
57°F / 14°C 55°F / 13°C 94% 30.15 in
(1021 mb)
Calm - 9SM
04:17
Partly Cloudy
57°F / 14°C 55°F / 13°C 94% 30.15 in
(1021 mb)
Calm - 10SM
04:07
Mostly Cloudy
57°F / 14°C 55°F / 13°C 94% 30.15 in
(1021 mb)
Calm - 10SM
03:59
Mostly Cloudy
Fog And Mist
57°F / 14°C 55°F / 13°C 94% 30.15 in
(1021 mb)
Calm - 2 1/2SM
03:54
Partly Cloudy
Fog And Mist
57°F / 14°C 55°F / 13°C 94% 30.15 in
(1021 mb)
Calm - 1 1/2SM
03:50
Partly Cloudy
Fog And Mist
57°F / 14°C 55°F / 13°C 94% 30.15 in
(1021 mb)
Calm - 2 1/2SM
02:54
Clear
59°F / 15°C 57°F / 14°C 94% 30.15 in
(1021 mb)
Calm - 10SM
01:54
Clear
61°F / 16°C 57°F / 14°C 88% 30.18 in
(1022 mb)
Calm - 10SM
00:54
Clear
63°F / 17°C 59°F / 15°C 88% 30.18 in
(1022 mb)
Calm - 10SM
Time Weather Temperature Dewpoint Humidity Pressure Winds Precip Visibility


Weather for websites

WeatherForYou.com, LLC is not responsible for any damages or problems caused by this service. Current weather conditions are obtained from the closest station including government and personal stations which may have varying degrees of accuracy. Weather forecasts are derived from the NOAA NDFD. Like all things, this site belongs to Jesus Christ... He just trusts me to maintain it. If you have any questions or comments email webmaster@weatherforyou.com

Copyright © 2014, WeatherForYou.com LLC. All rights reserved.